• En España
  • Lista de países
  • Para 7 días
  • Temperatura del agua
  • Mapa Satelital
  • El tiempo en el mapa
  • Informadores
  • user-avatar
    Iniciar sesión

    Tiempo cada hora Lipovka

    Hoy, 14 Agosto, Martes

    Tiempo Temperatura Precipitaciones Viento Presión Humedad
    00:00 +17°C° 0 mm 2 mps 740 mmHg 96%
    01:00 +17°C° 0 mm 2 mps 740 mmHg 97%
    02:00 +17°C° 0 mm 2 mps 740 mmHg 97%
    03:00 +16°C° 0 mm 2 mps 740 mmHg 98%
    04:00 +16°C° 0 mm 1 mps 740 mmHg 98%
    05:00 +18°C° 0 mm 1 mps 740 mmHg 96%
    06:00 +19°C° 0 mm 1 mps 740 mmHg 94%
    07:00 +19°C° 0 mm 1 mps 741 mmHg 93%
    08:00 +21°C° 0,2 mm 1 mps 741 mmHg 82%
    09:00 +21°C° 0,2 mm 2 mps 741 mmHg 72%
    10:00 +24°C° 0 mm 2 mps 741 mmHg 65%
    11:00 +24°C° 0,5 mm 2 mps 741 mmHg 65%
    12:00 +24°C° 0,5 mm 2 mps 741 mmHg 65%
    13:00 +24°C° 0,5 mm 2 mps 741 mmHg 65%
    14:00 +23°C° 0,4 mm 2 mps 741 mmHg 66%
    15:00 +23°C° 0,4 mm 2 mps 741 mmHg 67%
    16:00 +21°C° 0 mm 2 mps 741 mmHg 67%
    17:00 +20°C° 0,1 mm 2 mps 742 mmHg 71%
    18:00 +19°C° 0,1 mm 1 mps 742 mmHg 75%
    19:00 +18°C° 0,1 mm 1 mps 742 mmHg 79%
    20:00 +16°C° 0 mm 1 mps 742 mmHg 81%
    21:00 +15°C° 0 mm 1 mps 742 mmHg 83%
    22:00 +14°C° 0 mm 1 mps 742 mmHg 85%
    23:00 +14°C° 0 mm 1 mps 742 mmHg 89%

    Mañana, 15 Agosto, Miércoles

    Tiempo Temperatura Precipitaciones Viento Presión Humedad
    00:00 +13°C° 0 mm 1 mps 742 mmHg 92%
    01:00 +13°C° 0 mm 1 mps 742 mmHg 95%
    02:00 +12°C° 0 mm 1 mps 743 mmHg 96%
    03:00 +12°C° 0 mm 1 mps 743 mmHg 97%
    04:00 +12°C° 0 mm 1 mps 743 mmHg 97%
    05:00 +13°C° 0 mm 1 mps 743 mmHg 94%
    06:00 +14°C° 0 mm 2 mps 743 mmHg 90%
    07:00 +14°C° 0 mm 2 mps 744 mmHg 87%
    08:00 +16°C° 0 mm 3 mps 744 mmHg 78%
    09:00 +18°C° 0 mm 3 mps 744 mmHg 68%
    10:00 +20°C° 0 mm 3 mps 744 mmHg 58%
    11:00 +20°C° 0 mm 4 mps 744 mmHg 55%
    12:00 +21°C° 0 mm 4 mps 744 mmHg 51%
    13:00 +22°C° 0 mm 4 mps 744 mmHg 48%
    14:00 +22°C° 0 mm 4 mps 744 mmHg 48%
    15:00 +22°C° 0 mm 4 mps 744 mmHg 48%
    16:00 +22°C° 0 mm 4 mps 744 mmHg 48%
    17:00 +21°C° 0 mm 3 mps 744 mmHg 55%
    18:00 +20°C° 0 mm 2 mps 745 mmHg 63%
    19:00 +18°C° 0 mm 2 mps 745 mmHg 71%
    20:00 +18°C° 0 mm 1 mps 745 mmHg 76%
    21:00 +15°C° 0 mm 1 mps 745 mmHg 81%
    22:00 +14°C° 0 mm 1 mps 745 mmHg 85%
    23:00 +13°C° 0 mm 1 mps 745 mmHg 87%

    Pasado mañana, 16 Agosto, Jueves

    Tiempo Temperatura Precipitaciones Viento Presión Humedad
    00:00 +13°C° 0 mm 1 mps 745 mmHg 90%
    01:00 +12°C° 0 mm 1 mps 745 mmHg 92%
    02:00 +12°C° 0 mm 1 mps 745 mmHg 93%
    03:00 +11°C° 0 mm 1 mps 746 mmHg 94%
    04:00 +11°C° 0 mm 1 mps 746 mmHg 95%
    05:00 +12°C° 0 mm 1 mps 745 mmHg 92%
    06:00 +13°C° 0 mm 1 mps 745 mmHg 88%
    07:00 +15°C° 0 mm 2 mps 745 mmHg 85%
    08:00 +15°C° 1,2 mm 2 mps 744 mmHg 87%
    09:00 +14°C° 1,2 mm 3 mps 744 mmHg 90%
    10:00 +14°C° 1,2 mm 3 mps 743 mmHg 93%
    11:00 +14°C° 2,6 mm 3 mps 743 mmHg 94%
    12:00 +16°C° 2,6 mm 3 mps 743 mmHg 95%
    13:00 +16°C° 2,6 mm 3 mps 742 mmHg 96%
    14:00 +17°C° 0,4 mm 3 mps 742 mmHg 96%
    15:00 +17°C° 0,4 mm 3 mps 742 mmHg 96%
    16:00 +17°C° 0,4 mm 4 mps 742 mmHg 96%
    17:00 +17°C° 0,3 mm 3 mps 742 mmHg 97%
    18:00 +17°C° 0,3 mm 3 mps 742 mmHg 97%
    19:00 +17°C° 0,3 mm 3 mps 742 mmHg 98%
    20:00 +17°C° 0,1 mm 3 mps 742 mmHg 98%
    21:00 +16°C° 0,1 mm 3 mps 742 mmHg 98%
    22:00 +15°C° 0,1 mm 2 mps 743 mmHg 98%
    23:00 +14°C° 0 mm 2 mps 743 mmHg 98%

    17 Agosto, Viernes

    Tiempo Temperatura Precipitaciones Viento Presión Humedad
    00:00 +13°C° 0 mm 2 mps 743 mmHg 98%
    01:00 +13°C° 0 mm 2 mps 743 mmHg 98%
    02:00 +12°C° 0 mm 2 mps 743 mmHg 98%
    03:00 +12°C° 0 mm 2 mps 744 mmHg 98%
    04:00 +10°C° 0 mm 2 mps 744 mmHg 98%
    05:00 +12°C° 0 mm 2 mps 744 mmHg 97%
    06:00 +12°C° 0 mm 2 mps 745 mmHg 96%
    07:00 +12°C° 0 mm 2 mps 745 mmHg 96%
    08:00 +14°C° 0 mm 2 mps 745 mmHg 87%
    09:00 +16°C° 0 mm 2 mps 745 mmHg 79%
    10:00 +18°C° 0 mm 2 mps 746 mmHg 70%
    11:00 +19°C° 0,2 mm 2 mps 746 mmHg 67%
    12:00 +19°C° 0,2 mm 3 mps 746 mmHg 64%
    13:00 +20°C° 0,2 mm 3 mps 746 mmHg 61%
    14:00 +20°C° 0,3 mm 3 mps 746 mmHg 61%
    15:00 +20°C° 0,3 mm 3 mps 746 mmHg 61%
    16:00 +20°C° 0,3 mm 3 mps 746 mmHg 60%
    17:00 +19°C° 0,1 mm 2 mps 746 mmHg 65%
    18:00 +17°C° 0,1 mm 2 mps 746 mmHg 70%
    19:00 +16°C° 0,1 mm 2 mps 747 mmHg 75%
    20:00 +14°C° 0 mm 2 mps 747 mmHg 77%
    21:00 +13°C° 0 mm 2 mps 747 mmHg 79%
    22:00 +10°C° 0 mm 2 mps 748 mmHg 81%
    23:00 +10°C° 0 mm 2 mps 748 mmHg 82%

    18 Agosto, Sábado

    Tiempo Temperatura Precipitaciones Viento Presión Humedad
    00:00 +9°C° 0 mm 2 mps 748 mmHg 83%
    01:00 +9°C° 0 mm 2 mps 748 mmHg 84%
    02:00 +8°C° 0 mm 2 mps 748 mmHg 85%
    03:00 +8°C° 0 mm 2 mps 749 mmHg 87%
    04:00 +7°C° 0 mm 2 mps 749 mmHg 88%
    05:00 +8°C° 0 mm 2 mps 749 mmHg 84%
    06:00 +9°C° 0 mm 2 mps 750 mmHg 79%
    07:00 +10°C° 0 mm 2 mps 750 mmHg 75%
    08:00 +12°C° 0 mm 3 mps 750 mmHg 68%
    09:00 +13°C° 0 mm 3 mps 750 mmHg 60%
    10:00 +16°C° 0 mm 3 mps 750 mmHg 53%
    11:00 +16°C° 0 mm 3 mps 750 mmHg 52%
    12:00 +17°C° 0 mm 3 mps 750 mmHg 50%
    13:00 +18°C° 0 mm 3 mps 750 mmHg 49%
    14:00 +17°C° 0 mm 3 mps 750 mmHg 50%
    15:00 +17°C° 0 mm 3 mps 750 mmHg 52%
    16:00 +17°C° 0 mm 3 mps 750 mmHg 53%
    17:00 +16°C° 0 mm 2 mps 750 mmHg 59%
    18:00 +15°C° 0 mm 2 mps 750 mmHg 65%
    19:00 +14°C° 0 mm 2 mps 750 mmHg 72%
    20:00 +12°C° 0 mm 1 mps 751 mmHg 77%
    21:00 +11°C° 0 mm 1 mps 751 mmHg 82%
    22:00 +10°C° 0 mm 1 mps 751 mmHg 87%
    23:00 +9°C° 0 mm 1 mps 751 mmHg 89%

    19 Agosto, Domingo

    Tiempo Temperatura Precipitaciones Viento Presión Humedad
    00:00 +9°C° 0 mm 1 mps 752 mmHg 91%
    01:00 +8°C° 0 mm 1 mps 752 mmHg 93%
    02:00 +8°C° 0 mm 1 mps 752 mmHg 93%
    03:00 +7°C° 0 mm 1 mps 752 mmHg 94%
    04:00 +7°C° 0 mm 1 mps 752 mmHg 94%
    05:00 +9°C° 0 mm 1 mps 752 mmHg 88%
    06:00 +10°C° 0 mm 1 mps 753 mmHg 82%
    07:00 +12°C° 0 mm 1 mps 753 mmHg 76%
    08:00 +14°C° 0 mm 1 mps 753 mmHg 67%
    09:00 +16°C° 0 mm 1 mps 752 mmHg 59%
    10:00 +19°C° 0 mm 1 mps 752 mmHg 50%
    11:00 +19°C° 0 mm 2 mps 752 mmHg 47%
    12:00 +19°C° 0 mm 2 mps 751 mmHg 44%
    13:00 +20°C° 0 mm 2 mps 751 mmHg 41%
    14:00 +20°C° 0 mm 2 mps 751 mmHg 41%
    15:00 +20°C° 0 mm 2 mps 751 mmHg 42%
    16:00 +21°C° 0 mm 1 mps 750 mmHg 43%
    17:00 +20°C° 0 mm 1 mps 750 mmHg 52%
    18:00 +18°C° 0 mm 1 mps 750 mmHg 61%
    19:00 +16°C° 0 mm 1 mps 750 mmHg 70%
    20:00 +14°C° 0 mm 1 mps 750 mmHg 75%
    21:00 +12°C° 0 mm 1 mps 750 mmHg 80%
    22:00 +10°C° 0 mm 0 mps 750 mmHg 85%
    23:00 +9°C° 0 mm 0 mps 750 mmHg 87%
    Mostrar más